Location: Edinburgh
(55.9500°N, 3.1600°W)
Time: 09:11:28
(UTC+01:00)

N. Korean satellite - Pass Details

Date: 12 October 2017
Orbit: 459 x 517 km, 97.2° (Epoch: 21 October)

Event Time Altitude Azimuth Distance (km) Brightness Sun altitude
Rises 18:56:01 0° 164° (SSE) 2,548 10.1 -5.9°
Reaches altitude 10° 18:58:05 10° 164° (SSE) 1,662 9.2 -6.2°
Maximum altitude 19:01:40 89° 73° (ENE) 485 6.5 -6.7°
Drops below altitude 10° 19:05:12 10° 346° (NNW) 1,647 9.4 -7.2°
Sets 19:07:15 0° 346° (NNW) 2,521 10.3 -7.5°
